Flag for Trinidad and Tobago Weather past 2 weeks in San Fernando, Trinidad and Tobago

Now
84 °F

Passing clouds.


Feels Like: 90 °F
Forecast: 76 / 85 °F
Wind: 12 mph from Southeast

Location: Piarco International Airport - Trinidad

Current Time: Dec 26, 2014 at 4:15:30 PM

Latest Report: Dec 26, 2014 at 3:00 PM


Visibility: N/A

Pressure: 29.89 "Hg

Humidity: 66%

Dew point: 72 °F

Location of San FernandoLocation

Historic Weather in San Fernando — Graph

°F

San Fernando temperature yesterday

Maximum temperature yesterday: 90 °F (at 1:00 PM)
Minimum temperature yesterday: 75 °F (at 5:00 AM)
Average temperature yesterday: 81 °F

Past Weeks' High & Low Weather Summary

 TemperatureHumidityPressure
High91 °F (Dec 12, 12:00 PM)100% (Dec 14, 4:00 AM)30.01 "Hg (Dec 14, 4:00 AM)
Low72 °F (Dec 13, 5:00 AM)46% (Dec 25, 2:00 PM)29.80 "Hg (Dec 13, 3:00 PM)
Average80 °F77%29.90 "Hg
* Reported Dec 11 3:00 PM — Dec 26 3:00 PM, San Fernando, Weather by CustomWeather, © 2014

Note: Actual official high and low records may vary slightly from our data, if they occured in-between our weather recording intervals... More about our weather records

Advertising

San Fernando weather history for previous 24 hours

 ConditionsComfort  
Time TempWeatherWind HumidityBarometerVisibility
3:00 PM
Dec 26
84 °FPassing clouds.12 mph66%29.89 "HgN/A
2:00 PM88 °FPassing clouds.17 mph55%29.89 "HgN/A
1:00 PM88 °FPassing clouds.18 mph49%29.92 "HgN/A
12:00 PM88 °FPassing clouds.18 mph52%29.95 "HgN/A
11:00 AM88 °FPassing clouds.15 mph55%29.95 "HgN/A
10:00 AM84 °FPassing clouds.16 mph62%29.98 "HgN/A
9:00 AM84 °FPassing clouds.14 mph70%29.98 "HgN/A
8:00 AM82 °FPassing clouds.No wind74%29.98 "HgN/A
7:00 AM75 °FPassing clouds.No wind83%29.95 "HgN/A
6:00 AM75 °FScattered showers. Passing clouds.No wind89%29.92 "HgN/A
5:00 AM75 °FPassing clouds.No wind83%29.92 "HgN/A
4:00 AM75 °FPassing clouds.No wind89%29.89 "HgN/A
3:00 AM75 °FPassing clouds.No wind83%29.89 "HgN/A
2:00 AM75 °FPassing clouds.No wind83%29.92 "HgN/A
1:00 AM77 °FPassing clouds.No wind79%29.92 "HgN/A
12:00 AM79 °FPassing clouds.3 mph70%29.95 "HgN/A
11:00 PM
Dec 25
79 °FPassing clouds.3 mph74%29.95 "HgN/A
10:00 PM79 °FPassing clouds.5 mph74%29.95 "HgN/A
9:00 PM79 °FPassing clouds.5 mph79%29.95 "HgN/A
8:00 PM79 °FPassing clouds.6 mph79%29.92 "HgN/A
7:00 PM81 °FPassing clouds.6 mph79%29.92 "HgN/A
6:00 PM81 °FPassing clouds.9 mph74%29.89 "HgN/A
5:00 PM84 °FPassing clouds.14 mph66%29.89 "HgN/A
4:00 PM86 °FScattered clouds.16 mph62%29.89 "HgN/A
Weather by CustomWeather, © 2014

See weather overviewHow to use our weather pages